Washington County, Texas, United States
Lat: 30.22N, Lon: 96.44W
Wx Zone: TXZ197
Local Info
Past Weather Observations for Today

NOTE: This archive is for the closest National Weather Service station to Washington County. Information may differ from the station used for current weather conditions.

Click here for Long-term Archive

Time Weather Temperature Dewpoint Humidity Pressure Winds Precip Visibility
16:15
Fair
79°F / 26°C 75°F / 24°C 89% 29.95 in
(1014 mb)
ENE 6.9 mph
(ENE 11 kph)
0.01 in
(0.25 mm)
15:55
Overcast
Light Rain
77°F / 25°C 75°F / 24°C 94% 29.95 in
(1014 mb)
ENE 9.2 mph
(ENE 15 kph)
0.03 in
(0.76 mm)
10SM
15:35
Overcast
77°F / 25°C 73°F / 23°C 89% 29.95 in
(1014 mb)
ENE 5.8 mph
(ENE 9 kph)
0.03 in
(0.76 mm)
10SM
15:15
Overcast
79°F / 26°C 73°F / 23°C 84% 29.98 in
(1015 mb)
E 9.2 mph
(E 15 kph)
0.01 in
(0.25 mm)
7SM
14:55
Mostly Cloudy
86°F / 30°C 75°F / 24°C 70% 29.95 in
(1014 mb)
ESE 10.4 mph
(ESE 17 kph)
- 10SM
14:35
Mostly Cloudy
86°F / 30°C 77°F / 25°C 75% 29.95 in
(1014 mb)
SE 8.1 mph
(SE 13 kph)
- 10SM
14:15
Partly Cloudy
86°F / 30°C 75°F / 24°C 70% 29.95 in
(1014 mb)
E 9.2 mph
(E 15 kph)
- 10SM
13:55
Mostly Cloudy
Light Rain
84°F / 29°C 75°F / 24°C 74% 29.98 in
(1015 mb)
E 8.1 mph
(E 13 kph)
0.02 in
(0.51 mm)
10SM
13:35
Mostly Cloudy
Light Rain
82°F / 28°C 75°F / 24°C 79% 29.98 in
(1015 mb)
E 9.2 mph
(E 15 kph)
0.02 in
(0.51 mm)
5SM
13:15
Mostly Cloudy
88°F / 31°C 73°F / 23°C 62% 29.98 in
(1015 mb)
ENE 8.1 mph
(ENE 13 kph)
- 10SM
12:55
Mostly Cloudy
90°F / 32°C 73°F / 23°C 59% 29.98 in
(1015 mb)
NE 9.2 mph
(NE 15 kph)
- 10SM
12:35
Mostly Cloudy
88°F / 31°C 73°F / 23°C 62% 30.01 in
(1016 mb)
ENE 9.2 mph
(ENE 15 kph)
- 10SM
12:15
Mostly Cloudy
88°F / 31°C 73°F / 23°C 62% 30.01 in
(1016 mb)
ENE 8.1 mph
(ENE 13 kph)
- 10SM
11:55
Partly Cloudy
88°F / 31°C 73°F / 23°C 62% 30.01 in
(1016 mb)
ENE 10.4 mph
(ENE 17 kph)
- 10SM
11:35
Mostly Cloudy
88°F / 31°C 75°F / 24°C 66% 30.01 in
(1016 mb)
ENE 9.2 mph
(ENE 15 kph)
- 10SM
11:15
Mostly Cloudy
86°F / 30°C 75°F / 24°C 70% 30.01 in
(1016 mb)
ENE 6.9 mph
(ENE 11 kph)
- 10SM
10:55
Overcast
86°F / 30°C 75°F / 24°C 70% 30.01 in
(1016 mb)
NE 8.1 mph
(NE 13 kph)
-
10:35
Overcast
84°F / 29°C 73°F / 23°C 70% 30.04 in
(1017 mb)
NE 6.9 mph
(NE 11 kph)
- 10SM
10:15
Mostly Cloudy
84°F / 29°C 75°F / 24°C 74% 30.04 in
(1017 mb)
NE 4.6 mph
(NE 7 kph)
- 10SM
09:55
Partly Cloudy
Hazy
84°F / 29°C 75°F / 24°C 74% 30.01 in
(1016 mb)
ENE 8.1 mph
(ENE 13 kph)
- 3SM
09:15
Partly Cloudy
Hazy
81°F / 27°C 73°F / 23°C 79% 30.01 in
(1016 mb)
NE 5.8 mph
(NE 9 kph)
- 5SM
08:55
Mostly Cloudy
Hazy
81°F / 27°C 73°F / 23°C 79% 30.01 in
(1016 mb)
NE 4.6 mph
(NE 7 kph)
- 5SM
07:35
Fair
75°F / 24°C 73°F / 23°C 94% 30.01 in
(1016 mb)
NNE 4.6 mph
(NNE 7 kph)
-
07:15
Overcast
75°F / 24°C 73°F / 23°C 94% 30.01 in
(1016 mb)
N 5.8 mph
(N 9 kph)
- 10SM
06:55
Overcast
75°F / 24°C 73°F / 23°C 94% 30.01 in
(1016 mb)
NNE 5.8 mph
(NNE 9 kph)
- 10SM
06:35
Overcast
75°F / 24°C 73°F / 23°C 94% 30.01 in
(1016 mb)
N 5.8 mph
(N 9 kph)
- 10SM
06:15
Overcast
75°F / 24°C 73°F / 23°C 94% 30.01 in
(1016 mb)
N 4.6 mph
(N 7 kph)
- 10SM
05:55
Overcast
75°F / 24°C 73°F / 23°C 94% 29.98 in
(1015 mb)
NNE 3.5 mph
(NNE 6 kph)
0.01 in
(0.25 mm)
10SM
04:35
Overcast
75°F / 24°C 73°F / 23°C 94% 29.98 in
(1015 mb)
NNE 3.5 mph
(NNE 6 kph)
- 10SM
04:15
Overcast
75°F / 24°C 73°F / 23°C 94% 29.98 in
(1015 mb)
N 4.6 mph
(N 7 kph)
- 10SM
03:55
Overcast
75°F / 24°C 73°F / 23°C 94% 29.98 in
(1015 mb)
NE 3.5 mph
(NE 6 kph)
- 10SM
03:35
Mostly Cloudy
75°F / 24°C 73°F / 23°C 94% 29.98 in
(1015 mb)
NE 3.5 mph
(NE 6 kph)
- 10SM
03:15
Partly Cloudy
75°F / 24°C 73°F / 23°C 94% 29.98 in
(1015 mb)
Calm - 10SM
02:55
Partly Cloudy
75°F / 24°C 73°F / 23°C 94% 29.98 in
(1015 mb)
Calm - 10SM
01:55
Mostly Cloudy
75°F / 24°C 73°F / 23°C 94% 29.98 in
(1015 mb)
NE 3.5 mph
(NE 6 kph)
- 10SM
01:35
Mostly Cloudy
75°F / 24°C 73°F / 23°C 94% 29.98 in
(1015 mb)
NE 3.5 mph
(NE 6 kph)
- 10SM
01:15
Mostly Cloudy
75°F / 24°C 73°F / 23°C 94% 29.98 in
(1015 mb)
NE 3.5 mph
(NE 6 kph)
- 10SM
00:55
Mostly Cloudy
Thunder Storms
75°F / 24°C 75°F / 24°C 100% 29.98 in
(1015 mb)
NE 3.5 mph
(NE 6 kph)
- 10SM
00:35
Mostly Cloudy
75°F / 24°C 75°F / 24°C 100% 29.98 in
(1015 mb)
NE 4.6 mph
(NE 7 kph)
- 10SM
00:15
Mostly Cloudy
Thunder Storms
75°F / 24°C 75°F / 24°C 100% 29.98 in
(1015 mb)
Calm - 10SM
Time Weather Temperature Dewpoint Humidity Pressure Winds Precip Visibility


Weather for websites

WeatherForYou.com, LLC is not responsible for any damages or problems caused by this service. Current weather conditions are obtained from the closest station including government and personal stations which may have varying degrees of accuracy. Weather forecasts are derived from the NOAA NDFD. Like all things, this site belongs to Jesus Christ... He just trusts us to maintain it. If you have any questions or comments email webmaster@weatherforyou.com

Copyright © 2016, WeatherForYou.com LLC. All rights reserved.